When you browse on this site, cookies collect data to enhance your experience and personalize the content and advertising you see.
Visit our Privacy Policy to learn more. By continuing to use the site, you agree to this use of cookies and data.
  • In Latvia
  • List of Countries
  • For 7 days
  • Water Temperature
  • Satellite Maps
  • Weather Map
  • Weather Widgets
  • user-avatar
    Login

    Hourly Weather Bansko

    Today, 20 November, Tuesday

    Time Temperature Precipitation Wind Pressure Humidity
    00:00 +7°C° 0 mm 1 mps 720 mmHg 73%
    01:00 +7°C° 0 mm 1 mps 721 mmHg 75%
    02:00 +6°C° 0 mm 2 mps 721 mmHg 76%
    03:00 +6°C° 0 mm 2 mps 721 mmHg 78%
    04:00 +6°C° 0 mm 2 mps 721 mmHg 80%
    05:00 +7°C° 0 mm 2 mps 721 mmHg 82%
    06:00 +7°C° 0.1 mm 2 mps 721 mmHg 83%
    07:00 +7°C° 0.1 mm 2 mps 721 mmHg 84%
    08:00 +7°C° 0.1 mm 2 mps 721 mmHg 84%
    09:00 +9°C° 0.1 mm 2 mps 721 mmHg 84%
    10:00 +10°C° 0.1 mm 3 mps 721 mmHg 83%
    11:00 +11°C° 0.1 mm 3 mps 721 mmHg 82%
    12:00 +11°C° 0.2 mm 3 mps 721 mmHg 82%
    13:00 +12°C° 0.2 mm 3 mps 720 mmHg 82%
    14:00 +12°C° 0.2 mm 3 mps 720 mmHg 82%
    15:00 +12°C° 0.5 mm 3 mps 720 mmHg 85%
    16:00 +12°C° 0.5 mm 2 mps 720 mmHg 88%
    17:00 +10°C° 0.5 mm 2 mps 719 mmHg 91%
    18:00 +10°C° 0.3 mm 2 mps 719 mmHg 92%
    19:00 +10°C° 0.3 mm 2 mps 719 mmHg 92%
    20:00 +10°C° 0.3 mm 2 mps 719 mmHg 93%
    21:00 +10°C° 0.2 mm 2 mps 719 mmHg 93%
    22:00 +10°C° 0.2 mm 2 mps 719 mmHg 93%
    23:00 +10°C° 0.2 mm 2 mps 719 mmHg 93%

    Tomorrow, 21 November, Wednesday

    Time Temperature Precipitation Wind Pressure Humidity
    00:00 +10°C° 0.1 mm 2 mps 719 mmHg 94%
    01:00 +11°C° 0.1 mm 1 mps 718 mmHg 94%
    02:00 +11°C° 0.1 mm 1 mps 718 mmHg 94%
    03:00 +11°C° 0.4 mm 1 mps 718 mmHg 94%
    04:00 +11°C° 0.4 mm 1 mps 717 mmHg 94%
    05:00 +11°C° 0.4 mm 1 mps 717 mmHg 94%
    06:00 +11°C° 0.3 mm 1 mps 717 mmHg 93%
    07:00 +11°C° 0.3 mm 1 mps 717 mmHg 93%
    08:00 +11°C° 0.3 mm 1 mps 717 mmHg 92%
    09:00 +11°C° 0.6 mm 1 mps 717 mmHg 91%
    10:00 +12°C° 0.6 mm 1 mps 717 mmHg 89%
    11:00 +12°C° 0.6 mm 1 mps 717 mmHg 88%
    12:00 +12°C° 1 mm 1 mps 717 mmHg 88%
    13:00 +12°C° 1 mm 1 mps 717 mmHg 88%
    14:00 +12°C° 1 mm 1 mps 717 mmHg 88%
    15:00 +11°C° 0.6 mm 1 mps 717 mmHg 89%
    16:00 +10°C° 0.6 mm 2 mps 717 mmHg 90%
    17:00 +9°C° 0.6 mm 2 mps 718 mmHg 90%
    18:00 +9°C° 0.3 mm 2 mps 718 mmHg 91%
    19:00 +8°C° 0.3 mm 2 mps 719 mmHg 91%
    20:00 +8°C° 0.3 mm 2 mps 719 mmHg 91%
    21:00 +8°C° 0.2 mm 2 mps 720 mmHg 90%
    22:00 +7°C° 0.2 mm 2 mps 720 mmHg 90%
    23:00 +7°C° 0.2 mm 2 mps 720 mmHg 89%

    Day after tomorrow, 22 November, Thursday

    Time Temperature Precipitation Wind Pressure Humidity
    00:00 +7°C° 0.1 mm 2 mps 721 mmHg 89%
    01:00 +7°C° 0.1 mm 2 mps 721 mmHg 89%
    02:00 +6°C° 0.1 mm 2 mps 721 mmHg 89%
    03:00 +6°C° 0.1 mm 2 mps 721 mmHg 89%
    04:00 +6°C° 0.1 mm 2 mps 721 mmHg 89%
    05:00 +6°C° 0.1 mm 2 mps 722 mmHg 89%
    06:00 +7°C° 0.1 mm 1 mps 722 mmHg 88%
    07:00 +7°C° 0.1 mm 1 mps 722 mmHg 88%
    08:00 +6°C° 0.1 mm 1 mps 723 mmHg 87%
    09:00 +8°C° 0.1 mm 1 mps 723 mmHg 82%
    10:00 +9°C° 0.1 mm 1 mps 723 mmHg 77%
    11:00 +10°C° 0.1 mm 1 mps 723 mmHg 72%
    12:00 +11°C° 0.1 mm 1 mps 723 mmHg 71%
    13:00 +11°C° 0.1 mm 1 mps 723 mmHg 70%
    14:00 +12°C° 0.1 mm 1 mps 723 mmHg 68%
    15:00 +11°C° 0 mm 1 mps 723 mmHg 72%
    16:00 +10°C° 0 mm 1 mps 723 mmHg 76%
    17:00 +9°C° 0 mm 1 mps 723 mmHg 80%
    18:00 +8°C° 0 mm 1 mps 724 mmHg 82%
    19:00 +8°C° 0 mm 1 mps 724 mmHg 84%
    20:00 +7°C° 0 mm 1 mps 724 mmHg 86%
    21:00 +7°C° 0 mm 1 mps 725 mmHg 87%
    22:00 +7°C° 0 mm 1 mps 725 mmHg 87%
    23:00 +7°C° 0 mm 1 mps 725 mmHg 87%

    23 November, Friday

    Time Temperature Precipitation Wind Pressure Humidity
    00:00 +7°C° 0 mm 1 mps 725 mmHg 87%
    01:00 +6°C° 0 mm 1 mps 725 mmHg 87%
    02:00 +6°C° 0 mm 1 mps 725 mmHg 88%
    03:00 +6°C° 0 mm 1 mps 726 mmHg 88%
    04:00 +6°C° 0 mm 1 mps 726 mmHg 88%
    05:00 +6°C° 0 mm 1 mps 726 mmHg 88%
    06:00 +6°C° 0 mm 1 mps 726 mmHg 87%
    07:00 +6°C° 0 mm 1 mps 727 mmHg 87%
    08:00 +6°C° 0 mm 1 mps 727 mmHg 86%
    09:00 +7°C° 0 mm 1 mps 727 mmHg 81%
    10:00 +9°C° 0 mm 1 mps 728 mmHg 75%
    11:00 +10°C° 0 mm 1 mps 728 mmHg 70%
    12:00 +11°C° 0 mm 1 mps 728 mmHg 68%
    13:00 +11°C° 0 mm 1 mps 728 mmHg 66%
    14:00 +12°C° 0 mm 1 mps 727 mmHg 64%
    15:00 +11°C° 0 mm 1 mps 728 mmHg 68%
    16:00 +10°C° 0 mm 1 mps 728 mmHg 72%
    17:00 +9°C° 0 mm 1 mps 728 mmHg 76%
    18:00 +8°C° 0 mm 1 mps 728 mmHg 78%
    19:00 +7°C° 0 mm 1 mps 728 mmHg 80%
    20:00 +6°C° 0 mm 1 mps 728 mmHg 83%
    21:00 +6°C° 0 mm 1 mps 729 mmHg 83%
    22:00 +6°C° 0 mm 1 mps 729 mmHg 84%
    23:00 +5°C° 0 mm 1 mps 729 mmHg 85%

    24 November, Saturday

    Time Temperature Precipitation Wind Pressure Humidity
    00:00 +5°C° 0 mm 1 mps 728 mmHg 85%
    01:00 +4°C° 0 mm 0 mps 728 mmHg 85%
    02:00 +4°C° 0 mm 0 mps 728 mmHg 85%
    03:00 +4°C° 0 mm 0 mps 728 mmHg 84%
    04:00 +4°C° 0 mm 0 mps 728 mmHg 84%
    05:00 +3°C° 0 mm 0 mps 728 mmHg 84%
    06:00 +4°C° 0 mm 1 mps 728 mmHg 83%
    07:00 +5°C° 0 mm 1 mps 728 mmHg 82%
    08:00 +5°C° 0 mm 1 mps 728 mmHg 81%
    09:00 +7°C° 0 mm 1 mps 728 mmHg 74%
    10:00 +9°C° 0 mm 1 mps 728 mmHg 68%
    11:00 +11°C° 0 mm 1 mps 728 mmHg 61%
    12:00 +11°C° 0 mm 1 mps 727 mmHg 60%
    13:00 +12°C° 0 mm 1 mps 727 mmHg 59%
    14:00 +13°C° 0 mm 1 mps 726 mmHg 58%
    15:00 +11°C° 0 mm 1 mps 726 mmHg 64%
    16:00 +10°C° 0 mm 1 mps 725 mmHg 70%
    17:00 +8°C° 0 mm 1 mps 725 mmHg 76%
    18:00 +8°C° 0 mm 1 mps 725 mmHg 79%
    19:00 +7°C° 0 mm 1 mps 725 mmHg 82%
    20:00 +7°C° 0 mm 1 mps 725 mmHg 85%
    21:00 +7°C° 0 mm 1 mps 725 mmHg 86%
    22:00 +6°C° 0 mm 1 mps 725 mmHg 86%
    23:00 +6°C° 0 mm 1 mps 725 mmHg 87%

    25 November, Sunday

    Time Temperature Precipitation Wind Pressure Humidity
    00:00 +6°C° 0 mm 1 mps 724 mmHg 87%
    01:00 +6°C° 0 mm 1 mps 724 mmHg 87%
    02:00 +6°C° 0 mm 1 mps 724 mmHg 87%
    03:00 +6°C° 0 mm 1 mps 724 mmHg 85%
    04:00 +6°C° 0 mm 1 mps 723 mmHg 84%
    05:00 +6°C° 0 mm 1 mps 723 mmHg 82%
    06:00 +6°C° 0 mm 1 mps 723 mmHg 80%
    07:00 +6°C° 0 mm 1 mps 723 mmHg 79%
    08:00 +6°C° 0 mm 1 mps 723 mmHg 77%
    09:00 +9°C° 0 mm 1 mps 723 mmHg 72%
    10:00 +11°C° 0 mm 1 mps 722 mmHg 66%
    11:00 +13°C° 0 mm 2 mps 722 mmHg 60%
    12:00 +14°C° 0 mm 2 mps 722 mmHg 59%
    13:00 +14°C° 0 mm 2 mps 721 mmHg 57%
    14:00 +15°C° 0 mm 2 mps 721 mmHg 55%
    15:00 +14°C° 0 mm 2 mps 720 mmHg 62%
    16:00 +12°C° 0 mm 1 mps 720 mmHg 68%
    17:00 +11°C° 0 mm 1 mps 720 mmHg 75%
    18:00 +10°C° 0 mm 1 mps 719 mmHg 76%
    19:00 +10°C° 0 mm 1 mps 719 mmHg 78%
    20:00 +10°C° 0 mm 1 mps 719 mmHg 79%
    21:00 +10°C° 0.1 mm 1 mps 719 mmHg 79%
    22:00 +9°C° 0.1 mm 2 mps 718 mmHg 79%
    23:00 +9°C° 0.1 mm 2 mps 718 mmHg 79%
    Show more